TimePDT,TemperatureF,Dew PointF,Humidity,Sea Level PressureIn,VisibilityMPH,Wind Direction,Wind SpeedMPH,Gust SpeedMPH,PrecipitationIn,Events,Conditions,WindDirDegrees,DateUTC
12:54 AM,48.0,46.0,93,30.21,10.0,East,3.5,-,N/A,,Clear,90,2013-04-02 07:54:00
1:54 AM,48.0,45.0,89,30.22,10.0,Calm,Calm,-,N/A,,Clear,0,2013-04-02 08:54:00
2:54 AM,46.9,44.1,90,30.22,10.0,ESE,3.5,-,N/A,,Partly Cloudy,110,2013-04-02 09:54:00
3:54 AM,45.0,43.0,93,30.22,10.0,Calm,Calm,-,N/A,,Mostly Cloudy,0,2013-04-02 10:54:00
4:18 AM,48.2,46.4,93,30.17,1.8,Calm,Calm,-,N/A,,Overcast,0,2013-04-02 11:18:00
4:29 AM,48.2,48.2,100,30.17,1.0,Calm,Calm,-,N/A,,Mist,0,2013-04-02 11:29:00
4:47 AM,48.2,46.4,93,30.17,0.8,East,3.5,-,N/A,,Mist,80,2013-04-02 11:47:00
4:54 AM,46.9,46.0,97,30.21,1.0,East,3.5,-,N/A,,Mist,80,2013-04-02 11:54:00
5:07 AM,46.4,46.4,100,30.17,0.8,Calm,Calm,-,N/A,,Mist,0,2013-04-02 12:07:00
5:26 AM,48.2,46.4,93,30.16,0.2,ENE,3.5,-,N/A,Fog,Fog,70,2013-04-02 12:26:00
5:54 AM,46.9,46.9,100,30.20,0.2,ENE,3.5,-,N/A,Fog,Fog,60,2013-04-02 12:54:00
5:58 AM,46.4,46.4,100,30.16,0.5,ENE,3.5,-,0.01,Fog,Fog,60,2013-04-02 12:58:00
6:06 AM,46.4,44.6,93,30.17,2.0,Calm,Calm,-,0.01,,Mostly Cloudy,0,2013-04-02 13:06:00
6:13 AM,46.4,44.6,93,30.17,10.0,Calm,Calm,-,0.01,,Mostly Cloudy,0,2013-04-02 13:13:00
6:20 AM,46.4,46.4,100,30.17,10.0,Calm,Calm,-,0.01,,Scattered Clouds,0,2013-04-02 13:20:00
6:24 AM,46.4,46.4,100,30.17,1.8,Calm,Calm,-,0.01,,Scattered Clouds,0,2013-04-02 13:24:00
6:28 AM,46.4,46.4,100,30.17,0.8,South,3.5,-,0.01,,Mist,190,2013-04-02 13:28:00
6:54 AM,45.0,44.1,97,30.21,0.2,Calm,Calm,-,0.01,Fog,Fog,0,2013-04-02 13:54:00
7:04 AM,44.6,42.8,93,30.17,10.0,Calm,Calm,-,N/A,,Scattered Clouds,0,2013-04-02 14:04:00
7:54 AM,46.9,46.0,97,30.22,1.5,Calm,Calm,-,N/A,,Scattered Clouds,0,2013-04-02 14:54:00
7:56 AM,46.4,46.4,100,30.18,0.8,Calm,Calm,-,N/A,,Overcast,0,2013-04-02 14:56:00
8:11 AM,46.4,46.4,100,30.19,2.0,Calm,Calm,-,N/A,,Mostly Cloudy,0,2013-04-02 15:11:00
8:16 AM,46.4,46.4,100,30.19,10.0,Calm,Calm,-,N/A,,Scattered Clouds,0,2013-04-02 15:16:00
8:46 AM,48.2,48.2,100,30.18,2.5,Calm,Calm,-,N/A,,Mostly Cloudy,0,2013-04-02 15:46:00
8:54 AM,50.0,48.0,93,30.22,2.5,Calm,Calm,-,N/A,,Mostly Cloudy,0,2013-04-02 15:54:00
9:04 AM,50.0,48.2,94,30.18,7.0,Calm,Calm,-,N/A,,Mostly Cloudy,0,2013-04-02 16:04:00
9:19 AM,51.8,48.2,88,30.18,10.0,Calm,Calm,-,N/A,,Scattered Clouds,0,2013-04-02 16:19:00
9:54 AM,54.0,50.0,86,30.21,10.0,Calm,Calm,-,N/A,,Clear,0,2013-04-02 16:54:00
10:54 AM,57.9,51.1,78,30.22,10.0,Variable,6.9,-,N/A,,Clear,0,2013-04-02 17:54:00
11:54 AM,57.0,51.1,81,30.22,8.0,West,8.1,-,N/A,,Clear,280,2013-04-02 18:54:00
12:54 PM,57.0,50.0,77,30.22,10.0,West,9.2,-,N/A,,Clear,280,2013-04-02 19:54:00
1:54 PM,57.0,50.0,77,30.20,10.0,WNW,9.2,-,N/A,,Clear,300,2013-04-02 20:54:00
2:45 PM,57.2,50.0,77,30.15,10.0,WNW,9.2,-,N/A,,Scattered Clouds,290,2013-04-02 21:45:00
2:54 PM,55.9,50.0,80,30.19,10.0,WNW,11.5,17.3,N/A,,Mostly Cloudy,290,2013-04-02 21:54:00
3:54 PM,55.9,50.0,80,30.18,10.0,WNW,10.4,-,N/A,,Overcast,300,2013-04-02 22:54:00
4:54 PM,55.9,50.0,80,30.17,10.0,West,8.1,-,N/A,,Overcast,270,2013-04-02 23:54:00
5:05 PM,55.4,48.2,77,30.13,10.0,NNW,12.7,27.6,N/A,,Mostly Cloudy,340,2013-04-03 00:05:00
5:27 PM,53.6,48.2,82,30.13,10.0,West,8.1,-,N/A,,Mostly Cloudy,260,2013-04-03 00:27:00
5:54 PM,55.0,50.0,83,30.16,10.0,WNW,6.9,-,N/A,,Mostly Cloudy,290,2013-04-03 00:54:00
6:54 PM,52.0,48.9,89,30.17,10.0,WSW,8.1,-,N/A,,Overcast,240,2013-04-03 01:54:00
7:33 PM,51.8,48.2,88,30.13,9.0,SW,4.6,-,N/A,,Overcast,230,2013-04-03 02:33:00
7:54 PM,51.1,48.9,92,30.17,10.0,West,4.6,-,N/A,,Overcast,270,2013-04-03 02:54:00
8:08 PM,51.8,48.2,88,30.13,10.0,West,3.5,-,N/A,,Overcast,270,2013-04-03 03:08:00
8:54 PM,51.1,48.9,92,30.19,10.0,West,4.6,-,N/A,,Overcast,260,2013-04-03 03:54:00
9:07 PM,51.8,48.2,88,30.15,10.0,WSW,5.8,-,N/A,,Overcast,250,2013-04-03 04:07:00
9:31 PM,51.8,48.2,88,30.17,10.0,WSW,8.1,-,N/A,,Overcast,240,2013-04-03 04:31:00
9:54 PM,51.1,48.9,92,30.21,3.0,SW,5.8,-,N/A,,Overcast,220,2013-04-03 04:54:00
10:41 PM,50.0,48.2,94,30.17,6.0,SSW,5.8,-,N/A,,Overcast,210,2013-04-03 05:41:00
10:54 PM,50.0,48.9,96,30.20,3.0,SSW,4.6,-,N/A,,Overcast,210,2013-04-03 05:54:00
11:54 PM,50.0,48.0,93,30.17,10.0,Calm,Calm,-,N/A,,Overcast,0,2013-04-03 06:54:00